Location: Bartlow
(52.0833°N, 0.3167°E)
Time: 05:14:43
(UTC+00:00)

Meteor 2-17 Rocket - Pass Details

Date: 25 April 2024
Orbit: 934 x 957 km, 82.5° (Epoch: 25 May)

Event Time Altitude Azimuth Distance (km) Brightness Sun altitude
Exits shadow 01:30:35 39° 182° (S) 1,383 4.8 -21.5°
Maximum altitude 01:33:01 83° 99° (E) 959 4.4 -21.4°
Drops below altitude 10° 01:39:08 10° 12° (NNE) 2,670 7.9 -21.0°
Sets 01:41:37 0° 12° (NNE) 3,616 8.9 -20.8°
